Home   Weather   Astana   Past weeks

Flag for Kazakhstan Past Weather in Astana, Kazakhstan — Yesterday and Last 2 Weeks

Now
61 °F

Scattered clouds.


Feels Like: 61 °F
Forecast: 43 / 70 °F
Wind: 6 mph from Northwest

Location: Astana

Current Time: Aug 31, 2016 at 2:06:58 PM

Latest Report: Aug 31, 2016 at 1:30 PM


Visibility: N/A

Pressure: 30.24 "Hg

Humidity: 36%

Dew Point: 34 °F

Location of AstanaLocation

Past Weather in Astana — Graph

°F

Astana Temperature Yesterday

Maximum temperature yesterday: 64 °F (at 12:30 AM)
Minimum temperature yesterday: 50 °F (at 11:00 PM)
Average temperature yesterday: 56 °F

High & Low Weather Summary for the Past Weeks

 TemperatureHumidityPressure
High88 °F (Aug 27, 4:30 PM)100% (Aug 29, 3:30 AM)30.39 "Hg (Aug 29, 3:30 AM)
Low41 °F (Aug 31, 5:30 AM)17% (Aug 27, 4:30 PM)29.68 "Hg (Aug 29, 9:30 PM)
Average66 °F54%30.10 "Hg
* Reported Aug 16 1:00 PM — Aug 31 1:00 PM, Astana, Weather by CustomWeather, © 2016

Note: Actual official high and low records may vary slightly from our data, if they occured in-between our weather recording intervals... More about our weather records

Advertising

Astana Weather History for the Previous 24 Hours

Scroll right to see more
 ConditionsComfort  
Time TempWeatherWind HumidityBarometerVisibility
1:00 PM
Wed, Aug 31
61 °FScattered clouds.6 mph34%30.27 "HgN/A
12:30 PM61 °FScattered clouds.3 mph34%30.27 "HgN/A
12:00 PM59 °FScattered clouds.8 mph36%30.27 "HgN/A
11:30 AM59 °FScattered clouds.6 mph36%30.27 "HgN/A
11:00 AM59 °FScattered clouds.8 mph39%30.27 "HgN/A
10:30 AM57 °FPassing clouds.6 mph44%30.27 "HgN/A
10:00 AM55 °FPassing clouds.3 mph44%30.27 "HgN/A
9:30 AM54 °FSunny.1 mph54%30.27 "Hg10 mi
9:00 AM52 °FPassing clouds.3 mph58%30.24 "HgN/A
8:30 AM48 °FSunny.3 mph71%30.24 "Hg10 mi
8:00 AM45 °FSunny.3 mph76%30.24 "Hg10 mi
7:30 AM43 °FPassing clouds.3 mph76%30.21 "HgN/A
7:00 AM41 °FClear.1 mph81%30.21 "Hg10 mi
6:30 AM41 °FPassing clouds.3 mph81%30.21 "HgN/A
6:00 AM41 °FClear.3 mph81%30.18 "Hg10 mi
5:30 AM41 °FClear.6 mph81%30.18 "Hg10 mi
5:00 AM43 °FPassing clouds.6 mph76%30.18 "HgN/A
4:30 AM43 °FClear.6 mph76%30.18 "Hg10 mi
4:00 AM45 °FPassing clouds.6 mph71%30.15 "HgN/A
3:30 AM45 °FPassing clouds.6 mph71%30.15 "HgN/A
3:00 AM45 °FClear.6 mph71%30.15 "Hg10 mi
2:30 AM46 °FClear.6 mph66%30.15 "Hg10 mi
2:00 AM46 °FClear.6 mph66%30.15 "Hg10 mi
1:30 AM48 °FClear.6 mph62%30.15 "Hg10 mi
1:00 AM50 °FClear.3 mph58%30.15 "Hg10 mi
12:30 AM50 °FPassing clouds.3 mph58%30.12 "HgN/A
12:00 AM50 °FClear.6 mph58%30.12 "Hg10 mi
11:30 PM
Tue, Aug 30
50 °FPassing clouds.6 mph54%30.12 "HgN/A
11:00 PM50 °FClear.10 mph54%30.12 "Hg10 mi
10:30 PM52 °FClear.6 mph54%30.09 "Hg10 mi
10:00 PM54 °FPartly cloudy.8 mph47%30.09 "HgN/A
9:30 PM54 °FPartly cloudy.10 mph51%30.09 "HgN/A
9:00 PM55 °FBroken clouds.10 mph44%30.09 "HgN/A
8:30 PM55 °FPassing clouds.8 mph41%30.07 "HgN/A
8:00 PM55 °FSunny.10 mph41%30.07 "Hg10 mi
7:30 PM55 °FPassing clouds.8 mph41%30.04 "HgN/A
7:00 PM55 °FPartly sunny.8 mph41%30.04 "HgN/A
6:30 PM55 °FPartly sunny.13 mph41%30.04 "HgN/A
6:00 PM55 °FPartly sunny.13 mph41%30.01 "HgN/A
5:30 PM55 °FPartly sunny.13 mph41%30.01 "HgN/A
5:00 PM55 °FPartly sunny.10 mph47%30.01 "HgN/A
4:30 PM54 °FPartly sunny.10 mph47%30.01 "HgN/A
4:00 PM54 °FPartly sunny.10 mph51%30.01 "HgN/A
3:30 PM54 °FPartly sunny.13 mph47%29.98 "HgN/A
3:00 PM55 °FPartly sunny.13 mph47%29.98 "HgN/A
2:30 PM55 °FPartly sunny.15 mph44%29.98 "HgN/A
2:00 PM55 °FPartly sunny.15 mph44%29.95 "HgN/A
Weather by CustomWeather, © 2016

See weather overviewHow to use our weather pages